PROBA-1 1 26958U 01049B 26123.59511633 .00001242 00000+0 84352-4 0 9995 2 26958 97.9609 130.5742 0053326 273.9315 85.5816 15.07329826336900 CUTE-1 (CO-55) 1 27844U 03031E 26123.56975645 .00000309 00000+0 15277-3 0 9999 2 27844 98.6751 132.6882 0008723 321.2101 38.8451 14.24307791185329 CUBESAT XI-IV (CO-57) 1 27848U 03031J 26123.46561566 .00000260 00000+0 13327-3 0 9995 2 27848 98.6786 132.3343 0008969 341.2811 18.8037 14.23596591185013 APRIZESAT 4 1 35684U 09041D 26123.48141829 .00000905 00000+0 11424-3 0 9999 2 35684 98.1419 197.9115 0044674 106.2552 254.3582 14.83813017904737 APRIZESAT 3 1 35686U 09041F 26123.42387672 .00002515 00000+0 22135-3 0 9993 2 35686 98.2001 274.5225 0061230 213.7517 145.9799 14.96086404909683 PROBA-2 1 36037U 09059B 26123.46731422 .00000196 00000+0 56105-4 0 9991 2 36037 98.2448 307.4410 0014396 61.8362 298.4288 14.54843294875021 APRIZESAT 5 1 37792U 11044E 26123.55175994 .00000950 00000+0 12729-3 0 9994 2 37792 98.2442 55.3359 0053013 145.2193 215.2503 14.80984076792188 APRIZESAT 6 1 37793U 11044F 26123.63558740 .00000713 00000+0 10802-3 0 9995 2 37793 98.2388 33.2222 0042091 227.3782 200.0021 14.76855263790570 PROBA-V 1 39159U 13021A 26123.41788906 .00000067 00000+0 47578-4 0 9998 2 39159 98.3565 104.2414 0002944 262.8162 97.2683 14.23587336674742 APRIZESAT 7 1 39416U 13066A 26123.60788532 .00001738 00000+0 17744-3 0 9996 2 39416 97.7679 77.4807 0035959 1.7623 358.3716 14.91458609674583 APRIZESAT 8 1 39425U 13066K 26123.41134331 .00001272 00000+0 14345-3 0 9994 2 39425 97.8194 71.5163 0047481 73.7769 286.8664 14.87554945673018 BUGSAT-1 (TITA) 1 40014U 14033E 26123.59589709 .00006220 00000+0 33268-3 0 9990 2 40014 98.0413 213.5581 0027637 335.5080 24.4835 15.15139303649084 SAUDISAT 4 1 40016U 14033G 26123.41443053 .00000840 00000+0 11751-3 0 9999 2 40016 97.7522 271.1145 0043975 217.6242 142.1892 14.79478015639458 APRIZESAT 9 1 40018U 14033J 26123.27425193 .00000535 00000+0 86147-4 0 9993 2 40018 97.8992 257.5877 0065784 345.8899 14.0470 14.74163152636944 APRIZESAT 10 1 40019U 14033K 26123.29628163 .00000573 00000+0 97429-4 0 9995 2 40019 97.9583 251.2751 0079974 57.7425 303.1500 14.70843304635657 TECHDEMOSAT-1 (TDS-1) 1 40076U 14037H 26123.51544660 .00010133 00000+0 58406-3 0 9990 2 40076 98.3812 111.3316 0007816 66.9618 293.2434 15.12597097641479 TECHNOSAT 1 42829U 17042E 26123.49783937 .00003521 00000+0 25377-3 0 9990 2 42829 97.4245 282.8785 0016027 243.5410 116.4173 15.04689071479984 FLYING LAPTOP 1 42831U 17042G 26123.58694883 .00003562 00000+0 28370-3 0 9995 2 42831 97.4489 280.8991 0017731 276.2824 83.6381 15.00859423479767 HAWK-A 1 43765U 18099H 26123.11965094 .00007769 00000+0 31693-3 0 9994 2 43765 97.3947 175.9540 0036914 84.9139 275.6310 15.24068628406235 HAWK-B 1 43794U 18099AN 26123.08797238 .00007727 00000+0 33322-3 0 9990 2 43794 97.3998 175.4310 0034106 101.7874 258.7192 15.22288890406174 HAWK-C 1 43799U 18099AT 26123.58957203 .00009682 00000+0 35381-3 0 9999 2 43799 97.3920 177.1145 0042746 84.0984 276.5125 15.27420464407101 SALSAT 1 46495U 20068K 26123.52606125 .00008713 00000+0 31035-3 0 9998 2 46495 97.8858 123.8966 0011719 98.8202 261.4364 15.29141113308531 HAWK-2C 1 47502U 21006CT 26123.61027743 .00007085 00000+0 21669-3 0 9997 2 47502 97.2312 168.8187 0006901 16.4870 343.6597 15.34130616292667 HAWK-2A 1 47505U 21006CW 26123.09136945 .00006897 00000+0 21101-3 0 9998 2 47505 97.2355 168.9616 0006705 22.8811 337.2729 15.34134909292589 HAWK-2B 1 47508U 21006CZ 26123.61019757 .00007998 00000+0 24404-3 0 9992 2 47508 97.2225 167.8751 0007053 17.9965 342.1527 15.34161294292665 HAWK-3B 1 48931U 21059BE 26123.45160896 .00046580 00000+0 45494-3 0 9996 2 48931 97.6688 316.0540 0006162 129.6537 230.5267 15.66036452270842 HAWK-3C 1 48948U 21059BX 26123.45133107 .00046024 00000+0 44965-3 0 9994 2 48948 97.6819 321.6598 0006597 130.0432 230.1407 15.66027623270845 HAWK-3A 1 48957U 21059CG 26123.45118661 .00045626 00000+0 44589-3 0 9991 2 48957 97.6763 318.9014 0006209 129.9975 230.1831 15.66025117270841 HAWK-5C 1 52754U 22057Y 26123.38561522 .00021867 00000+0 39430-3 0 9990 2 52754 97.6536 280.2441 0004044 218.0193 142.0773 15.49785000219407 HAWK-5B 1 52756U 22057AA 26123.38546632 .00021994 00000+0 39647-3 0 9998 2 52756 97.6545 278.5873 0004301 214.8022 145.2948 15.49790731219405 HAWK-5A 1 52757U 22057AB 26122.99782895 .00020188 00000+0 36438-3 0 9997 2 52757 97.6540 279.0096 0004500 218.0800 142.0133 15.49772184219341 HAWK-6B 1 55324U 23011A 26123.65079593 .00006124 00000+0 26654-3 0 9992 2 55324 40.4992 251.7573 0001690 62.8455 297.2526 15.22539949181052 HAWK-6C 1 55326U 23011C 26123.38777945 .00005641 00000+0 24620-3 0 9994 2 55326 40.4979 250.1342 0002297 42.3790 317.7196 15.22538990181028 HAWK-6A 1 55327U 23011D 26123.65019183 .00005340 00000+0 23354-3 0 9997 2 55327 40.4991 250.2248 0001959 38.7045 321.3904 15.22539602181068 HAWK-7A 1 56191U 23054P 26123.61864983 .00006254 00000+0 23942-3 0 9994 2 56191 97.2752 12.0918 0003118 158.6813 201.4557 15.26895118170224 HAWK-7B 1 56193U 23054R 26123.61859366 .00006435 00000+0 24629-3 0 9999 2 56193 97.2778 10.3396 0002179 154.8247 205.3099 15.26895824170228 HAWK-7C 1 56200U 23054Y 26123.61848788 .00006177 00000+0 23653-3 0 9993 2 56200 97.2756 11.1223 0002672 148.9721 211.1677 15.26894824170226